Simultaneous Nadir Overpasses (SNOs) Predictions

Prediction of SNOs between GOES-17 and AQUA Satellite Orbit:

Table of predicted SNOs for the next 14.0 days since TLE Epoch: 10/5/2024
Index Date Time (GOES-17) GOES-17 Lat,Lon AQUA Lat,Lon Distance(km) Time Diff (sec)
1 10/06/2024 09:04:09 -0.01,-104.71 -0.63,-101.72 339.77 80
2 10/06/2024 21:24:05 -0.01,-104.70 -0.43,-106.54 209.41 80
3 10/08/2024 21:08:52 -0.01,-104.70 0.54,-102.17 288.17 80
4 10/09/2024 09:28:38 0.01,-104.71 0.49,-106.95 254.35 80
5 10/11/2024 09:08:00 0.01,-104.70 -0.43,-102.55 244.38 80
6 10/11/2024 21:27:55 -0.01,-104.69 -0.56,-107.37 305.11 80
7 10/13/2024 21:12:33 -0.01,-104.68 0.36,-102.96 195.92 80
8 10/14/2024 09:32:16 0.01,-104.70 0.67,-107.73 344.95 80
9 10/16/2024 09:11:30 0.02,-104.70 -0.26,-103.30 158.30 80
10 10/16/2024 21:31:22 -0.03,-104.68 -0.78,-108.10 390.58 80
11 10/18/2024 21:15:53 -0.03,-104.67 0.21,-103.67 114.51 80
